Location: �chenoz-la-M�line
(47.6009°N, 6.1354°E)
Time: 08:48:17
(UTC+00:00)

STARLINK-2097 - Visible Passes

Search period start: 09 May 2021 00:00
Search period end: 19 May 2021 00:00
Orbit: 546 x 548 km, 53.1° (Epoch: 09 May)

Date Brightness Start Highest point End Pass type
(mag) Time Alt. Az. Time Alt. Az. Time Alt. Az.
09 May 4.2 20:03:52 10° WNW 20:07:56 53° NNE 20:11:55 10° E visible
09 May 4.0 21:43:29 10° WNW 21:47:27 46° SW 21:47:30 46° SW visible
10 May 4.0 19:57:33 10° WNW 20:01:39 60° NNE 20:05:39 11° ESE visible
10 May 4.4 21:37:14 10° WNW 21:41:03 36° SW 21:41:14 36° SW visible
11 May 3.8 19:51:11 10° WNW 19:55:19 70° NNE 19:59:23 10° ESE visible
11 May 4.7 21:31:01 10° WNW 21:34:36 29° SW 21:34:58 28° SSW visible
12 May 3.6 19:44:48 10° WNW 19:48:57 83° NNE 19:53:05 10° ESE visible
12 May 5.1 21:24:50 10° W 21:28:05 23° SW 21:28:43 22° SSW visible
13 May 3.6 19:38:23 10° WNW 19:42:31 82° SSW 19:46:39 10° ESE visible
13 May 5.5 21:18:44 10° W 21:21:32 18° SW 21:22:29 16° SSW visible
14 May 5.8 21:12:49 10° W 21:14:55 14° SW 21:16:16 12° SSW visible
15 May 6.2 21:07:46 10° WSW 21:08:15 10° SW 21:08:44 10° SW visible
